W1TTX Weather Reports


time (UTC)temp
C
wind
direction
speed
KPH
gust
KPH
rain 1hr
cm
rain 24hr
cm
rain mn
cm
humidity
%
barometer
mb
20210920050710 11 0 0.0 0.0 0.00 0.00 0.00 98 1018.4
20210920045809 11 0 0.0 0.0 0.00 0.00 0.00 98 1018.3
20210920044910 11 0 0.0 0.0 0.00 0.00 0.00 98 1018.3
20210920044011 11 0 0.0 0.0 0.00 0.00 0.00 98 1018.2
20210920043109 11 0 0.0 0.0 0.00 0.00 0.00 98 1018.2
20210920042212 11 0 0.0 0.0 0.00 0.00 0.00 98 1018.0
20210920041311 11 0 0.0 3.2 0.00 0.00 0.00 98 1018.1
20210920040411 11 0 0.0 3.2 0.00 0.00 0.00 98 1018.3
20210920035511 11 0 0.0 0.0 0.00 0.00 0.00 98 1018.1
20210920034611 11 0 0.0 0.0 0.00 0.00 0.00 98 1018.0
20210920033711 11 0 0.0 0.0 0.00 0.00 0.00 98 1018.2
20210920032810 11 0 0.0 0.0 0.00 0.00 0.00 98 1018.1
20210920031911 12 0 0.0 1.6 0.00 0.00 0.00 97 1017.9
20210920031010 12 0 0.0 1.6 0.00 0.00 0.00 97 1017.9
20210920030110 12 0 0.0 0.0 0.00 0.00 0.00 97 1017.9
20210920025212 12 0 0.0 0.0 0.00 0.00 0.00 97 1017.6
20210920024310 12 0 0.0 0.0 0.00 0.00 0.00 97 1017.6
20210920023412 12 0 0.0 0.0 0.00 0.00 0.00 97 1017.6
20210920022510 12 0 0.0 0.0 0.00 0.00 0.00 97 1017.6
20210920021610 12 0 0.0 0.0 0.00 0.00 0.00 97 1017.5
20210920020710 12 0 0.0 0.0 0.00 0.00 0.00 97 1017.5
20210920015810 12 0 0.0 0.0 0.00 0.00 0.00 97 1017.5
20210920014912 12 0 0.0 0.0 0.00 0.00 0.00 97 1017.4
20210920014010 12 0 0.0 0.0 0.00 0.00 0.00 97 1017.3
20210920013111 13 0 0.0 0.0 0.00 0.00 0.00 97 1017.4
20210920012211 13 0 0.0 1.6 0.00 0.00 0.00 97 1017.1
20210920011314 13 0 0.0 1.6 0.00 0.00 0.00 96 1017.0
20210920010411 13 0 0.0 3.2 0.00 0.00 0.00 95 1017.0
20210920005510 13 0 0.0 1.6 0.00 0.00 0.00 95 1016.9
20210920004611 13 0 0.0 3.2 0.00 0.00 0.00 94 1017.1
20210920003710 13 0 0.0 0.0 0.00 0.00 0.00 92 1017.0
20210920002810 14 0 0.0 0.0 0.00 0.00 0.00 91 1016.7
20210920001910 14 0 0.0 0.0 0.00 0.00 0.00 90 1016.6
20210920001010 14 0 0.0 0.0 0.00 0.00 0.00 89 1016.4
20210920000110 15 0 0.0 0.0 0.00 0.00 0.00 87 1016.3
20210919235210 15 0 0.0 1.6 0.00 0.00 0.00 85 1016.2
20210919234310 15 0 0.0 1.6 0.00 0.10 0.00 83 1016.2
20210919233411 16 0 0.0 3.2 0.00 0.13 0.00 79 1015.8
20210919232510 16 0 0.0 1.6 0.00 0.13 0.00 75 1015.8
20210919231610 16 0 0.0 1.6 0.00 0.15 0.00 72 1015.6
20210919230711 16 0 0.0 0.0 0.00 0.15 0.00 64 1015.5
20210919225811 16 0 0.0 1.6 0.00 0.15 0.00 63 1015.4
20210919224910 17 0 0.0 0.0 0.00 0.15 0.00 64 1015.4
20210919224010 17 0 0.0 0.0 0.00 0.15 0.00 63 1015.3
20210919223110 17 0 0.0 0.0 0.00 0.15 0.00 60 1015.1
20210919222210 17 0 0.0 0.0 0.00 0.15 0.00 57 1015.1
20210919221310 18 0 0.0 0.0 0.00 0.15 0.00 56 1015.2
20210919220410 18 0 0.0 0.0 0.00 0.15 0.00 54 1015.0
20210919215510 19 0 0.0 0.0 0.00 0.15 0.00 54 1015.0
20210919214610 19 0 0.0 0.0 0.00 0.15 0.00 53 1015.0
20210919213710 20 0 0.0 0.0 0.00 0.15 0.00 49 1014.9
20210919212810 20 0 0.0 0.0 0.00 0.15 0.00 49 1014.8
20210919211911 20 0 0.0 1.6 0.00 0.15 0.00 47 1014.7
20210919211010 20 0 0.0 3.2 0.00 0.15 0.00 46 1014.7
20210919210110 21 0 0.0 3.2 0.00 0.15 0.00 47 1014.7
20210919205213 22 0 0.0 0.0 0.00 0.15 0.00 44 1014.6
20210919204310 25 0 0.0 0.0 0.00 0.15 0.00 43 1014.7
20210919203410 25 0 0.0 0.0 0.00 0.15 0.00 39 1014.5
20210919202511 26 0 0.0 0.0 0.00 0.15 0.00 41 1014.5
20210919201611 26 0 0.0 0.0 0.00 0.15 0.00 42 1014.4
20210919200710 26 0 0.0 6.4 0.00 0.15 0.00 39 1014.4
20210919195810 26 0 0.0 1.6 0.00 0.15 0.00 41 1014.6
20210919194910 26 0 0.0 1.6 0.00 0.15 0.00 42 1014.4
20210919194011 26 0 0.0 0.0 0.00 0.15 0.00 42 1014.4
20210919193111 26 0 0.0 1.6 0.00 0.15 0.00 41 1014.5
20210919192210 26 0 0.0 1.6 0.00 0.15 0.00 43 1014.5
20210919191310 26 0 0.0 1.6 0.00 0.15 0.00 41 1014.5
20210919190411 26 0 0.0 3.2 0.00 0.15 0.00 39 1014.4
20210919185510 27 0 0.0 1.6 0.00 0.15 0.00 40 1014.6
20210919184610 27 0 0.0 3.2 0.00 0.15 0.00 35 1014.5
20210919183710 27 0 0.0 3.2 0.00 0.15 0.00 37 1014.5
20210919182810 26 0 0.0 0.0 0.00 0.15 0.00 41 1014.6
20210919181911 26 0 0.0 1.6 0.00 0.15 0.00 40 1014.6
20210919181010 26 0 0.0 6.4 0.00 0.15 0.00 42 1014.7
20210919180110 26 176 1.6 6.4 0.00 0.15 0.00 41 1014.8
20210919175210 26 0 0.0 1.6 0.00 0.15 0.00 38 1014.8
20210919174311 26 0 0.0 4.8 0.00 0.15 0.00 39 1015.0
20210919173417 25 0 0.0 3.2 0.00 0.15 0.00 45 1014.9
20210919172510 26 0 0.0 6.4 0.00 0.15 0.00 40 1015.0
20210919171611 25 0 0.0 3.2 0.00 0.15 0.00 44 1015.0
20210919170710 25 0 0.0 6.4 0.00 0.15 0.00 41 1014.9
20210919165810 25 0 0.0 8.0 0.00 0.15 0.00 43 1015.0
20210919164910 25 0 0.0 3.2 0.00 0.15 0.00 43 1015.2
20210919164010 25 0 0.0 6.4 0.00 0.15 0.00 44 1015.2
20210919163113 25 0 0.0 6.4 0.00 0.15 0.00 38 1015.3
20210919162210 25 0 0.0 6.4 0.00 0.15 0.00 43 1015.3
20210919161310 25 0 0.0 3.2 0.00 0.15 0.00 43 1015.2
20210919160411 25 0 0.0 3.2 0.00 0.15 0.00 44 1015.4
20210919155510 25 0 0.0 3.2 0.00 0.15 0.00 45 1015.2
20210919154610 24 0 0.0 1.6 0.00 0.15 0.00 46 1015.3
20210919153710 24 0 0.0 1.6 0.00 0.15 0.00 46 1015.3
20210919152811 24 0 0.0 4.8 0.00 0.15 0.00 48 1015.4
20210919151911 24 0 0.0 4.8 0.00 0.15 0.00 46 1015.3
20210919151010 23 0 0.0 1.6 0.00 0.15 0.00 46 1015.4
20210919150111 23 0 0.0 1.6 0.00 0.15 0.00 46 1015.4
20210919145212 23 0 0.0 1.6 0.00 0.15 0.00 47 1015.4
20210919144310 23 0 0.0 0.0 0.00 0.15 0.00 48 1015.5
20210919143412 23 0 0.0 0.0 0.00 0.15 0.00 49 1015.4
20210919142510 22 0 0.0 3.2 0.00 0.15 0.00 52 1015.3
20210919141610 22 0 0.0 3.2 0.00 0.15 0.00 52 1015.3
20210919140710 22 0 0.0 3.2 0.00 0.15 0.00 53 1015.1
20210919135810 21 0 0.0 1.6 0.00 0.15 0.00 54 1015.1
20210919134910 21 0 0.0 8.0 0.00 0.15 0.00 54 1015.0
20210919134010 21 0 0.0 0.0 0.00 0.15 0.00 55 1015.0
20210919133110 21 0 0.0 0.0 0.00 0.15 0.00 58 1015.0
20210919132211 20 0 0.0 3.2 0.00 0.15 0.00 59 1014.8
20210919131311 20 0 0.0 0.0 0.00 0.15 0.00 59 1014.9
20210919130410 20 0 0.0 0.0 0.00 0.15 0.00 61 1014.8
20210919125510 20 0 0.0 0.0 0.00 0.15 0.00 63 1014.8
20210919124610 20 0 0.0 0.0 0.00 0.15 0.00 66 1014.8
20210919123710 18 0 0.0 0.0 0.00 0.15 0.00 71 1014.8
20210919122811 17 0 0.0 0.0 0.00 0.15 0.00 79 1014.6
20210919121911 16 0 0.0 0.0 0.00 0.15 0.00 85 1014.7
20210919121010 16 0 0.0 0.0 0.00 0.15 0.00 89 1014.7
20210919120110 16 0 0.0 0.0 0.00 0.15 0.00 98 1014.7
20210919115213 15 0 0.0 0.0 0.00 0.15 0.00 99 1014.7
20210919114313 13 0 0.0 0.0 0.00 0.15 0.00 99 1014.7
20210919113412 12 0 0.0 0.0 0.00 0.15 0.00 97 1014.6
20210919112512 12 0 0.0 0.0 0.00 0.15 0.00 97 1014.5
20210919111612 12 0 0.0 0.0 0.00 0.15 0.00 97 1014.4
20210919110712 12 0 0.0 0.0 0.00 0.15 0.00 97 1014.2
20210919105811 12 0 0.0 0.0 0.00 0.15 0.00 97 1014.0
20210919104911 12 0 0.0 0.0 0.00 0.15 0.00 97 1013.9
20210919104011 12 0 0.0 0.0 0.00 0.15 0.00 97 1013.6
20210919103111 12 0 0.0 0.0 0.00 0.15 0.00 97 1013.6
20210919102211 12 0 0.0 0.0 0.00 0.15 0.00 97 1013.4
20210919101310 12 0 0.0 0.0 0.00 0.15 0.00 97 1013.3
20210919100411 12 0 0.0 0.0 0.00 0.15 0.00 97 1013.2
20210919095510 12 0 0.0 0.0 0.00 0.15 0.00 97 1013.1
20210919094612 12 0 0.0 0.0 0.00 0.15 0.00 97 1013.1
20210919093711 12 0 0.0 0.0 0.00 0.15 0.00 97 1013.1
20210919092811 12 0 0.0 0.0 0.00 0.15 0.00 97 1012.9
20210919091915 12 0 0.0 0.0 0.00 0.15 0.00 97 1012.9
20210919091011 12 0 0.0 0.0 0.00 0.15 0.00 97 1012.8
20210919090112 13 0 0.0 0.0 0.00 0.15 0.00 99 1012.7
20210919085211 13 0 0.0 0.0 0.00 0.15 0.00 99 1012.6
20210919084311 13 0 0.0 0.0 0.00 0.15 0.00 99 1012.6
20210919083411 13 0 0.0 0.0 0.00 0.15 0.00 99 1012.4
20210919082512 13 0 0.0 0.0 0.00 0.15 0.00 99 1012.4
20210919081611 13 0 0.0 0.0 0.00 0.15 0.00 99 1012.3
20210919080711 13 0 0.0 0.0 0.00 0.15 0.00 99 1012.2
20210919075811 13 0 0.0 4.8 0.00 0.15 0.00 99 1012.0
20210919074912 13 0 0.0 0.0 0.00 0.15 0.00 99 1012.1
20210919074011 14 0 0.0 0.0 0.00 0.15 0.00 99 1012.0
20210919073111 14 0 0.0 0.0 0.00 0.15 0.00 99 1011.9
20210919072211 14 0 0.0 0.0 0.00 0.15 0.00 99 1011.8
20210919071312 14 0 0.0 0.0 0.00 0.15 0.00 99 1011.8
20210919070411 14 0 0.0 0.0 0.00 0.15 0.00 99 1011.7
20210919065511 14 0 0.0 0.0 0.00 0.15 0.00 99 1011.7
20210919064611 15 0 0.0 0.0 0.00 0.15 0.00 99 1011.7
20210919063711 15 0 0.0 0.0 0.00 0.15 0.00 99 1011.8
20210919062812 15 0 0.0 0.0 0.00 0.15 0.00 99 1011.8
20210919061915 15 0 0.0 0.0 0.00 0.15 0.00 99 1011.8
20210919061012 15 0 0.0 0.0 0.00 0.15 0.00 99 1011.7
20210919060122 15 0 0.0 0.0 0.00 0.15 0.00 99 1011.9
20210919055213 15 0 0.0 0.0 0.00 0.15 0.00 99 1011.8
20210919054311 16 0 0.0 0.0 0.00 0.15 0.00 98 1011.8
20210919053415 16 0 0.0 0.0 0.00 0.15 0.00 98 1011.7
20210919052513 16 0 0.0 0.0 0.00 0.15 0.00 98 1011.8
20210919051613 16 0 0.0 0.0 0.00 0.15 0.00 98 1011.7